CST,Max TemperatureF,Mean TemperatureF,Min TemperatureF,Max Dew PointF,MeanDew PointF,Min DewpointF,Max Humidity, Mean Humidity, Min Humidity, Max Sea Level PressureIn, Mean Sea Level PressureIn, Min Sea Level PressureIn, Max VisibilityMiles, Mean VisibilityMiles, Min VisibilityMiles, Max Wind SpeedMPH, Mean Wind SpeedMPH, Max Gust SpeedMPH,PrecipitationIn, CloudCover, Events, WindDirDegrees
2012-10-1,92,80,69,75,71,66,95,81,45,29.94,29.88,29.74,8,5,3,12,2,,0.00,6,Rain-Thunderstorm,251
2012-10-2,91,81,71,76,69,61,94,75,45,30.01,29.93,29.81,8,7,4,14,3,,0.00,6,,247
2012-10-3,94,81,68,73,68,61,94,72,36,30.12,30.02,29.88,8,7,5,12,3,,0.00,3,,223
2012-10-4,95,82,68,72,65,55,84,66,31,30.14,30.06,29.92,8,7,2,17,4,,0.00,2,,247
2012-10-5,88,78,67,72,65,61,88,70,40,30.13,30.05,29.94,8,7,2,17,2,,0.00,3,,225
2012-10-6,96,82,68,70,65,63,83,62,42,30.03,29.94,29.79,8,7,5,14,3,,0.00,1,,240
2012-10-7,90,80,71,72,67,63,88,68,40,29.98,29.93,29.86,8,7,2,17,12,,0.00,2,,330
2012-10-8,95,83,71,77,68,63,89,65,39,30.06,29.96,29.84,8,6,4,14,4,,0.00,4,,337
2012-10-9,92,82,72,74,69,63,97,73,49,30.08,29.99,29.86,8,5,2,12,4,,0.20,5,Rain-Thunderstorm,244
2012-10-10,93,82,71,76,69,64,91,72,46,30.07,29.97,29.83,8,6,2,12,3,,0.00,6,Rain-Thunderstorm,240
2012-10-11,96,82,68,76,68,64,94,73,45,30.05,29.98,29.84,8,6,1,28,4,29,0.47,5,Rain-Thunderstorm,286
2012-10-12,93,80,68,72,66,61,92,68,43,30.06,29.99,29.86,8,7,5,14,3,,0.00,3,,240
2012-10-13,93,81,69,74,67,61,88,66,47,30.09,30.01,29.86,8,6,2,14,2,,0.00,7,Rain-Thunderstorm,247
2012-10-14,95,83,71,73,66,61,88,62,42,30.08,29.98,29.82,8,8,6,17,6,,0.00,4,,227
2012-10-15,86,78,69,75,70,63,100,87,57,30.05,29.98,29.86,8,4,2,12,2,,0.08,6,Fog-Rain-Thunderstorm,168
2012-10-16,90,80,69,73,68,63,94,73,46,30.02,29.96,29.85,8,7,5,12,3,,0.00,5,,232
2012-10-17,93,80,68,72,67,63,88,71,34,30.05,29.98,29.84,8,7,4,12,2,,0.00,5,,243
2012-10-18,91,80,69,72,67,63,89,70,44,29.98,29.92,29.78,8,7,5,12,4,,0.00,4,,260
2012-10-19,93,81,69,74,69,63,89,71,50,29.97,29.90,29.76,8,4,1,14,3,,0.00,5,Fog,240
2012-10-20,93,82,71,74,68,63,89,68,36,29.99,29.91,29.77,8,7,5,17,6,,0.02,5,Rain,37
2012-10-21,91,81,71,73,68,63,89,70,51,30.00,29.91,29.77,8,5,4,14,3,,0.00,6,Fog,233
2012-10-22,92,82,71,75,69,63,89,72,46,30.00,29.90,29.76,8,4,3,90,5,,0.00,6,Fog,228
2012-10-23,96,84,72,75,69,64,84,69,44,29.92,29.85,29.71,8,5,2,12,3,,0.00,5,,7
2012-10-24,96,84,71,75,69,63,90,69,37,29.96,29.87,29.73,8,5,2,12,3,,0.00,3,,243
2012-10-25,93,83,73,75,70,64,94,72,50,29.97,29.88,29.75,6,4,2,17,3,,0.00,3,,241
2012-10-26,92,82,73,75,67,64,86,65,44,29.96,29.89,29.75,8,4,0,14,3,,0.00,5,Fog,218
2012-10-27,91,81,71,75,67,63,90,68,48,29.99,29.91,29.80,6,4,2,12,2,,0.00,6,Fog,223
2012-10-28,86,78,69,70,67,64,94,69,44,30.06,30.01,29.93,8,7,6,12,2,,0.00,5,,252
2012-10-29,91,82,72,71,66,63,92,70,38,30.11,30.04,29.93,8,6,2,15,5,,0.00,6,,311
2012-10-30,92,79,66,69,65,63,88,65,36,30.09,30.01,29.88,8,7,4,17,3,,0.00,3,,235
2012-10-31,92,79,66,70,66,64,88,68,41,30.10,30.01,29.86,8,7,5,14,3,,0.00,2,,247